Time,TemperatureF,DewpointF,PressureIn,WindDirection,WindDirectionDegrees,WindSpeedMPH,WindSpeedGustMPH,Humidity,HourlyPrecipIn,Conditions,Clouds,dailyrainin,SoftwareType,DateUTC
2013-11-25 00:00:00,26.5,10.7,30.53,NNW,338,0.0,0.0,51,0.00,,,0.00,WUHU216HW,2013-11-25 05:00:00,
2013-11-25 00:01:00,26.5,10.7,30.53,NNW,338,0.0,0.0,51,0.00,,,0.00,WUHU216HW,2013-11-25 05:01:00,
2013-11-25 00:02:00,26.5,10.7,30.53,NNW,338,0.0,0.0,51,0.00,,,0.00,WUHU216HW,2013-11-25 05:02:00,
2013-11-25 00:07:00,26.5,10.7,30.53,NNW,338,0.0,0.0,51,0.00,,,0.00,WUHU216HW,2013-11-25 05:07:00,
2013-11-25 00:30:00,26.3,11.0,30.53,North,0,0.0,0.0,52,0.00,,,0.00,WUHU216HW,2013-11-25 05:30:00,
2013-11-25 00:35:00,26.3,11.0,30.53,North,0,0.0,0.0,52,0.00,,,0.00,WUHU216HW,2013-11-25 05:35:00,
2013-11-25 01:00:00,25.6,11.2,30.52,North,0,0.0,0.0,54,0.00,,,0.00,WUHU216HW,2013-11-25 06:00:00,
2013-11-25 01:05:00,25.6,11.2,30.52,North,0,0.0,0.0,54,0.00,,,0.00,WUHU216HW,2013-11-25 06:05:00,
2013-11-25 01:30:00,25.4,11.3,30.51,North,0,0.0,0.0,55,0.00,,,0.00,WUHU216HW,2013-11-25 06:30:00,
2013-11-25 01:35:00,25.4,11.3,30.51,North,0,0.0,0.0,55,0.00,,,0.00,WUHU216HW,2013-11-25 06:35:00,
2013-11-25 02:00:00,25.2,11.6,30.52,North,0,0.0,0.0,56,0.00,,,0.00,WUHU216HW,2013-11-25 07:00:00,
2013-11-25 02:05:00,25.2,11.6,30.52,North,0,0.0,0.0,56,0.00,,,0.00,WUHU216HW,2013-11-25 07:05:00,
2013-11-25 02:30:00,25.0,11.9,30.52,North,0,0.0,0.0,57,0.00,,,0.00,WUHU216HW,2013-11-25 07:30:00,
2013-11-25 02:35:00,25.0,11.9,30.52,North,0,0.0,0.0,57,0.00,,,0.00,WUHU216HW,2013-11-25 07:35:00,
2013-11-25 03:00:00,24.8,12.2,30.53,North,0,0.0,0.0,58,0.00,,,0.00,WUHU216HW,2013-11-25 08:00:00,
2013-11-25 03:05:00,24.8,12.2,30.53,North,0,0.0,0.0,58,0.00,,,0.00,WUHU216HW,2013-11-25 08:05:00,
2013-11-25 03:30:00,24.7,12.0,30.53,North,0,0.0,0.0,58,0.00,,,0.00,WUHU216HW,2013-11-25 08:30:00,
2013-11-25 03:35:00,24.7,12.0,30.53,North,0,0.0,0.0,58,0.00,,,0.00,WUHU216HW,2013-11-25 08:35:00,
2013-11-25 04:00:00,23.8,11.5,30.53,North,0,0.0,0.0,59,0.00,,,0.00,WUHU216HW,2013-11-25 09:00:00,
2013-11-25 04:05:00,23.8,11.5,30.53,North,0,0.0,0.0,59,0.00,,,0.00,WUHU216HW,2013-11-25 09:05:00,
2013-11-25 04:30:00,23.4,11.2,30.53,North,0,0.0,0.0,59,0.00,,,0.00,WUHU216HW,2013-11-25 09:30:00,
2013-11-25 04:35:00,23.4,11.2,30.53,North,0,0.0,0.0,59,0.00,,,0.00,WUHU216HW,2013-11-25 09:35:00,
2013-11-25 05:00:00,23.0,11.5,30.53,WNW,293,0.0,0.0,61,0.00,,,0.00,WUHU216HW,2013-11-25 10:00:00,
2013-11-25 05:05:00,23.0,11.5,30.53,WNW,293,0.0,0.0,61,0.00,,,0.00,WUHU216HW,2013-11-25 10:05:00,
2013-11-25 05:30:00,22.7,11.2,30.53,WNW,293,0.0,0.0,61,0.00,,,0.00,WUHU216HW,2013-11-25 10:30:00,
2013-11-25 05:35:00,22.7,11.2,30.53,WNW,293,0.0,0.0,61,0.00,,,0.00,WUHU216HW,2013-11-25 10:35:00,
2013-11-25 06:00:00,21.8,10.7,30.53,NNW,338,0.0,0.0,62,0.00,,,0.00,WUHU216HW,2013-11-25 11:00:00,
2013-11-25 06:05:00,21.8,10.7,30.53,NNW,338,0.0,0.0,62,0.00,,,0.00,WUHU216HW,2013-11-25 11:05:00,
2013-11-25 06:30:00,21.4,10.4,30.53,NNW,338,0.0,0.0,62,0.00,,,0.00,WUHU216HW,2013-11-25 11:30:00,
2013-11-25 06:35:00,21.4,10.4,30.53,NNW,338,0.0,0.0,62,0.00,,,0.00,WUHU216HW,2013-11-25 11:35:00,
2013-11-25 07:00:00,21.4,10.7,30.53,NNW,338,0.0,0.0,63,0.00,,,0.00,WUHU216HW,2013-11-25 12:00:00,
2013-11-25 07:05:00,21.4,10.7,30.53,NNW,338,0.0,0.0,63,0.00,,,0.00,WUHU216HW,2013-11-25 12:05:00,
2013-11-25 07:30:00,22.0,11.6,30.54,NNW,338,0.0,0.0,64,0.00,,,0.00,WUHU216HW,2013-11-25 12:30:00,
2013-11-25 07:35:00,22.0,11.6,30.54,NNW,338,0.0,0.0,64,0.00,,,0.00,WUHU216HW,2013-11-25 12:35:00,
2013-11-25 08:00:00,23.0,13.0,30.54,North,0,0.0,0.0,65,0.00,,,0.00,WUHU216HW,2013-11-25 13:00:00,
2013-11-25 08:05:00,23.0,13.0,30.54,North,0,0.0,0.0,65,0.00,,,0.00,WUHU216HW,2013-11-25 13:05:00,
2013-11-25 08:30:00,24.8,14.0,30.55,SSE,158,2.5,2.5,63,0.00,,,0.00,WUHU216HW,2013-11-25 13:30:00,
2013-11-25 08:35:00,24.8,14.0,30.55,SSE,158,2.5,2.5,63,0.00,,,0.00,WUHU216HW,2013-11-25 13:35:00,
2013-11-25 09:00:00,27.7,14.9,30.57,SSW,203,2.5,2.5,58,0.00,,,0.00,WUHU216HW,2013-11-25 14:00:00,
2013-11-25 09:05:00,27.7,14.9,30.57,SSW,203,2.5,2.5,58,0.00,,,0.00,WUHU216HW,2013-11-25 14:05:00,
2013-11-25 09:30:00,30.6,15.0,30.57,ENE,68,0.2,0.2,52,0.00,,,0.00,WUHU216HW,2013-11-25 14:30:00,
2013-11-25 09:35:00,30.6,15.0,30.57,ENE,68,0.2,0.2,52,0.00,,,0.00,WUHU216HW,2013-11-25 14:35:00,
2013-11-25 10:00:00,32.0,15.9,30.57,SE,135,2.5,2.5,51,0.00,,,0.00,WUHU216HW,2013-11-25 15:00:00,
2013-11-25 10:05:00,32.0,15.9,30.57,SE,135,2.5,2.5,51,0.00,,,0.00,WUHU216HW,2013-11-25 15:05:00,
2013-11-25 10:30:00,33.5,16.3,30.56,ENE,68,0.9,0.9,49,0.00,,,0.00,WUHU216HW,2013-11-25 15:30:00,
2013-11-25 10:35:00,33.5,16.3,30.56,ENE,68,0.9,0.9,49,0.00,,,0.00,WUHU216HW,2013-11-25 15:35:00,
2013-11-25 11:00:00,34.9,16.1,30.54,SSW,203,1.3,1.3,46,0.00,,,0.00,WUHU216HW,2013-11-25 16:00:00,
2013-11-25 11:05:00,34.9,16.1,30.54,SSW,203,1.3,1.3,46,0.00,,,0.00,WUHU216HW,2013-11-25 16:05:00,
2013-11-25 11:30:00,36.2,16.7,30.53,NNE,23,0.4,0.4,45,0.00,,,0.00,WUHU216HW,2013-11-25 16:30:00,
2013-11-25 11:35:00,36.2,16.7,30.53,NNE,23,0.4,0.4,45,0.00,,,0.00,WUHU216HW,2013-11-25 16:35:00,
2013-11-25 12:00:00,37.6,16.5,30.52,NW,315,0.7,0.7,42,0.00,,,0.00,WUHU216HW,2013-11-25 17:00:00,
2013-11-25 12:05:00,37.6,16.5,30.52,NW,315,0.7,0.7,42,0.00,,,0.00,WUHU216HW,2013-11-25 17:05:00,
2013-11-25 12:30:00,39.2,17.5,30.50,SSE,158,0.2,0.2,41,0.00,,,0.00,WUHU216HW,2013-11-25 17:30:00,
2013-11-25 12:35:00,39.2,17.5,30.50,SSE,158,0.2,0.2,41,0.00,,,0.00,WUHU216HW,2013-11-25 17:35:00,
2013-11-25 13:00:00,39.6,16.6,30.49,ESE,113,1.1,1.1,39,0.00,,,0.00,WUHU216HW,2013-11-25 18:00:00,
2013-11-25 13:05:00,39.6,16.6,30.49,ESE,113,1.1,1.1,39,0.00,,,0.00,WUHU216HW,2013-11-25 18:05:00,
2013-11-25 13:30:00,40.3,16.6,30.46,ENE,68,1.1,1.1,38,0.00,,,0.00,WUHU216HW,2013-11-25 18:30:00,
2013-11-25 13:35:00,40.3,16.6,30.46,ENE,68,1.1,1.1,38,0.00,,,0.00,WUHU216HW,2013-11-25 18:35:00,
2013-11-25 14:00:00,41.4,16.9,30.46,SE,135,2.0,2.0,37,0.00,,,0.00,WUHU216HW,2013-11-25 19:00:00,
2013-11-25 14:05:00,41.4,16.9,30.46,SE,135,2.0,2.0,37,0.00,,,0.00,WUHU216HW,2013-11-25 19:05:00,
2013-11-25 14:30:00,41.8,16.6,30.44,SSE,158,0.9,0.9,36,0.00,,,0.00,WUHU216HW,2013-11-25 19:30:00,
2013-11-25 14:35:00,41.8,16.6,30.44,SSE,158,0.9,0.9,36,0.00,,,0.00,WUHU216HW,2013-11-25 19:35:00,
2013-11-25 15:00:00,41.6,15.8,30.44,SSE,158,2.2,2.2,35,0.00,,,0.00,WUHU216HW,2013-11-25 20:00:00,
2013-11-25 15:05:00,41.6,15.8,30.44,SSE,158,2.2,2.2,35,0.00,,,0.00,WUHU216HW,2013-11-25 20:05:00,
2013-11-25 15:30:00,42.1,15.6,30.44,WSW,248,0.2,0.2,34,0.00,,,0.00,WUHU216HW,2013-11-25 20:30:00,
2013-11-25 15:35:00,42.1,15.6,30.44,WSW,248,0.2,0.2,34,0.00,,,0.00,WUHU216HW,2013-11-25 20:35:00,
2013-11-25 16:00:00,41.4,14.9,30.44,SSW,203,0.2,0.2,34,0.00,,,0.00,WUHU216HW,2013-11-25 21:00:00,
2013-11-25 16:05:00,41.4,14.9,30.44,SSW,203,0.2,0.2,34,0.00,,,0.00,WUHU216HW,2013-11-25 21:05:00,
2013-11-25 16:30:00,41.0,15.3,30.44,SE,135,0.0,0.0,35,0.00,,,0.00,WUHU216HW,2013-11-25 21:30:00,
2013-11-25 16:35:00,41.0,15.3,30.44,SE,135,0.0,0.0,35,0.00,,,0.00,WUHU216HW,2013-11-25 21:35:00,
2013-11-25 17:00:00,40.5,15.5,30.43,SSE,158,0.0,0.0,36,0.00,,,0.00,WUHU216HW,2013-11-25 22:00:00,
2013-11-25 17:05:00,40.5,15.5,30.43,SSE,158,0.0,0.0,36,0.00,,,0.00,WUHU216HW,2013-11-25 22:05:00,
2013-11-25 17:30:00,39.2,14.9,30.43,West,270,0.0,0.0,37,0.00,,,0.00,WUHU216HW,2013-11-25 22:30:00,
2013-11-25 17:35:00,39.2,14.9,30.43,West,270,0.0,0.0,37,0.00,,,0.00,WUHU216HW,2013-11-25 22:35:00,
2013-11-25 18:00:00,38.2,15.3,30.42,West,270,0.0,0.0,39,0.00,,,0.00,WUHU216HW,2013-11-25 23:00:00,
2013-11-25 18:05:00,38.2,15.3,30.42,West,270,0.0,0.0,39,0.00,,,0.00,WUHU216HW,2013-11-25 23:05:00,
2013-11-25 18:30:00,36.5,15.0,30.43,West,270,0.0,0.0,41,0.00,,,0.00,WUHU216HW,2013-11-25 23:30:00,
2013-11-25 18:35:00,36.5,15.0,30.43,West,270,0.0,0.0,41,0.00,,,0.00,WUHU216HW,2013-11-25 23:35:00,
2013-11-25 19:00:00,35.5,14.6,30.42,SW,225,0.4,0.4,42,0.00,,,0.00,WUHU216HW,2013-11-26 00:00:00,
2013-11-25 19:05:00,35.5,14.6,30.42,SW,225,0.4,0.4,42,0.00,,,0.00,WUHU216HW,2013-11-26 00:05:00,
2013-11-25 19:30:00,34.7,14.4,30.42,WSW,248,0.7,0.7,43,0.00,,,0.00,WUHU216HW,2013-11-26 00:30:00,
2013-11-25 19:35:00,34.7,14.4,30.42,WSW,248,0.7,0.7,43,0.00,,,0.00,WUHU216HW,2013-11-26 00:35:00,
2013-11-25 20:00:00,34.7,15.0,30.43,WSW,248,0.0,0.0,44,0.00,,,0.00,WUHU216HW,2013-11-26 01:00:00,
2013-11-25 20:05:00,34.7,15.0,30.43,WSW,248,0.0,0.0,44,0.00,,,0.00,WUHU216HW,2013-11-26 01:05:00,
2013-11-25 20:30:00,34.9,16.1,30.42,SSE,158,0.0,0.0,46,0.00,,,0.00,WUHU216HW,2013-11-26 01:30:00,
2013-11-25 20:35:00,34.9,16.1,30.42,SSE,158,0.0,0.0,46,0.00,,,0.00,WUHU216HW,2013-11-26 01:35:00,
2013-11-25 21:00:00,35.3,16.5,30.42,SSW,203,0.0,0.0,46,0.00,,,0.00,WUHU216HW,2013-11-26 02:00:00,
2013-11-25 21:05:00,35.3,16.5,30.42,SSW,203,0.0,0.0,46,0.00,,,0.00,WUHU216HW,2013-11-26 02:05:00,
2013-11-25 21:30:00,35.1,16.3,30.41,SSE,158,0.2,0.2,46,0.00,,,0.00,WUHU216HW,2013-11-26 02:30:00,
2013-11-25 21:35:00,35.1,16.3,30.41,SSE,158,0.2,0.2,46,0.00,,,0.00,WUHU216HW,2013-11-26 02:35:00,
2013-11-25 22:00:00,35.3,16.5,30.39,SSE,158,0.0,0.0,46,0.00,,,0.00,WUHU216HW,2013-11-26 03:00:00,
2013-11-25 22:05:00,35.3,16.5,30.39,SSE,158,0.0,0.0,46,0.00,,,0.00,WUHU216HW,2013-11-26 03:05:00,
2013-11-25 22:30:00,35.1,16.8,30.37,East,90,0.0,0.0,47,0.00,,,0.00,WUHU216HW,2013-11-26 03:30:00,
2013-11-25 22:35:00,35.1,16.8,30.37,East,90,0.0,0.0,47,0.00,,,0.00,WUHU216HW,2013-11-26 03:35:00,
2013-11-25 23:00:00,35.3,17.5,30.39,NNW,338,0.0,0.0,48,0.00,,,0.00,WUHU216HW,2013-11-26 04:00:00,
2013-11-25 23:05:00,35.3,17.5,30.39,NNW,338,0.0,0.0,48,0.00,,,0.00,WUHU216HW,2013-11-26 04:05:00,
2013-11-25 23:30:00,35.6,17.8,30.39,WSW,248,0.0,0.0,48,0.00,,,0.00,WUHU216HW,2013-11-26 04:30:00,
2013-11-25 23:35:00,35.6,17.8,30.39,WSW,248,0.0,0.0,48,0.00,,,0.00,WUHU216HW,2013-11-26 04:35:00,